owner,sensor,date,latitude,longitude,vertical_datum,wind_speed,wind_to_direction,wind_speed_of_gust,qcFlag 
DISL,ioos:station:DISL:PPTA:1,2014-08-01T00:00:00Z,30.2791,-87.5561,0.0,2.99,244.4,-9999.0,'1111122,1111122,1111122' 
DISL,ioos:station:DISL:PPTA:1,2014-08-01T00:30:00Z,30.2791,-87.5561,0.0,2.5,249.4,-9999.0,'1111122,1111122,1111122' 
DISL,ioos:station:DISL:PPTA:1,2014-08-01T01:00:00Z,30.2791,-87.5561,0.0,3.03,253.6,-9999.0,'1111122,1111122,1111122' 
DISL,ioos:station:DISL:PPTA:1,2014-08-01T01:30:00Z,30.2791,-87.5561,0.0,2.64,255.3,-9999.0,'1111122,1111122,1111122' 
DISL,ioos:station:DISL:PPTA:1,2014-08-01T02:00:00Z,30.2791,-87.5561,0.0,2.32,256.7,-9999.0,'1111122,1111122,1111122' 
DISL,ioos:station:DISL:PPTA:1,2014-08-01T02:30:00Z,30.2791,-87.5561,0.0,2.4,254.7,-9999.0,'1111122,1111122,1111122' 
DISL,ioos:station:DISL:PPTA:1,2014-08-01T03:00:00Z,30.2791,-87.5561,0.0,1.61,260.5,-9999.0,'1111122,1111122,1111122' 
DISL,ioos:station:DISL:PPTA:1,2014-08-01T03:30:00Z,30.2791,-87.5561,0.0,2.31,270.1,-9999.0,'1111122,1111122,1111122' 
DISL,ioos:station:DISL:PPTA:1,2014-08-01T04:00:00Z,30.2791,-87.5561,0.0,2.26,280.9,-9999.0,'1111122,1111122,1111122' 
DISL,ioos:station:DISL:PPTA:1,2014-08-01T04:30:00Z,30.2791,-87.5561,0.0,1.62,310.9,-9999.0,'1111122,1111122,1111122' 
DISL,ioos:station:DISL:PPTA:1,2014-08-01T05:00:00Z,30.2791,-87.5561,0.0,2.27,325.7,-9999.0,'1111122,1111122,1111122' 
DISL,ioos:station:DISL:PPTA:1,2014-08-01T05:30:00Z,30.2791,-87.5561,0.0,2.76,331.2,-9999.0,'1111122,1111122,1111122' 
DISL,ioos:station:DISL:PPTA:1,2014-08-01T06:00:00Z,30.2791,-87.5561,0.0,2.0,332.4,-9999.0,'1111122,1111122,1111122' 
DISL,ioos:station:DISL:PPTA:1,2014-08-01T06:30:00Z,30.2791,-87.5561,0.0,2.04,326.6,-9999.0,'1111122,1111122,1111122' 
DISL,ioos:station:DISL:PPTA:1,2014-08-01T07:00:00Z,30.2791,-87.5561,0.0,2.31,352.0,-9999.0,'1111122,1111122,1111122' 
DISL,ioos:station:DISL:PPTA:1,2014-08-01T07:30:00Z,30.2791,-87.5561,0.0,2.14,347.3,-9999.0,'1111122,1111122,1111122' 
DISL,ioos:station:DISL:PPTA:1,2014-08-01T08:00:00Z,30.2791,-87.5561,0.0,2.57,7.458,-9999.0,'1111122,1111122,1111122' 
DISL,ioos:station:DISL:PPTA:1,2014-08-01T08:30:00Z,30.2791,-87.5561,0.0,2.21,352.1,-9999.0,'1111122,1111122,1111122' 
DISL,ioos:station:DISL:PPTA:1,2014-08-01T09:00:00Z,30.2791,-87.5561,0.0,1.99,345.2,-9999.0,'1111122,1111122,1111122' 
DISL,ioos:station:DISL:PPTA:1,2014-08-01T09:30:00Z,30.2791,-87.5561,0.0,2.23,21.04,-9999.0,'1111122,1111122,1111122' 
DISL,ioos:station:DISL:PPTA:1,2014-08-01T10:00:00Z,30.2791,-87.5561,0.0,2.27,348.4,-9999.0,'1111122,1111122,1111122' 
DISL,ioos:station:DISL:PPTA:1,2014-08-01T10:30:00Z,30.2791,-87.5561,0.0,1.91,351.8,-9999.0,'1111122,1111122,1111122' 
DISL,ioos:station:DISL:PPTA:1,2014-08-01T11:00:00Z,30.2791,-87.5561,0.0,1.99,359.6,-9999.0,'1111122,1111122,1111122' 
DISL,ioos:station:DISL:PPTA:1,2014-08-01T11:30:00Z,30.2791,-87.5561,0.0,1.83,6.331,-9999.0,'1111122,1111122,1111122' 
DISL,ioos:station:DISL:PPTA:1,2014-08-01T12:00:00Z,30.2791,-87.5561,0.0,2.38,8.74,-9999.0,'1111122,1111122,1111122' 
DISL,ioos:station:DISL:PPTA:1,2014-08-01T12:30:00Z,30.2791,-87.5561,0.0,2.55,11.89,-9999.0,'1111122,1111122,1111122' 
DISL,ioos:station:DISL:PPTA:1,2014-08-01T13:00:00Z,30.2791,-87.5561,0.0,1.52,22.57,-9999.0,'1111122,1111122,1111122' 
DISL,ioos:station:DISL:PPTA:1,2014-08-01T13:30:00Z,30.2791,-87.5561,0.0,1.81,353.0,-9999.0,'1111122,1111122,1111122' 
DISL,ioos:station:DISL:PPTA:1,2014-08-01T14:00:00Z,30.2791,-87.5561,0.0,1.88,329.5,-9999.0,'1111122,1111122,1111122' 
DISL,ioos:station:DISL:PPTA:1,2014-08-01T14:30:00Z,30.2791,-87.5561,0.0,1.09,15.04,-9999.0,'1111122,1111122,1111122' 
DISL,ioos:station:DISL:PPTA:1,2014-08-01T15:00:00Z,30.2791,-87.5561,0.0,0.93,18.2,-9999.0,'1111122,1111122,1111122' 
DISL,ioos:station:DISL:PPTA:1,2014-08-01T15:30:00Z,30.2791,-87.5561,0.0,0.74,23.66,-9999.0,'1111122,1111122,1111122' 
DISL,ioos:station:DISL:PPTA:1,2014-08-01T16:00:00Z,30.2791,-87.5561,0.0,0.2,58.41,-9999.0,'1111122,1111122,1111122' 
DISL,ioos:station:DISL:PPTA:1,2014-08-01T16:30:00Z,30.2791,-87.5561,0.0,0.76,178.2,-9999.0,'1111122,1111122,1111122' 
DISL,ioos:station:DISL:PPTA:1,2014-08-01T17:00:00Z,30.2791,-87.5561,0.0,0.95,168.9,-9999.0,'1111122,1111122,1111122' 
DISL,ioos:station:DISL:PPTA:1,2014-08-01T17:30:00Z,30.2791,-87.5561,0.0,1.28,171.7,-9999.0,'1111122,1111122,1111122' 
DISL,ioos:station:DISL:PPTA:1,2014-08-01T18:00:00Z,30.2791,-87.5561,0.0,1.69,165.5,-9999.0,'1111122,1111122,1111122' 
DISL,ioos:station:DISL:PPTA:1,2014-08-01T18:30:00Z,30.2791,-87.5561,0.0,1.27,170.7,-9999.0,'1111122,1111122,1111122' 
DISL,ioos:station:DISL:PPTA:1,2014-08-01T19:00:00Z,30.2791,-87.5561,0.0,1.38,178.5,-9999.0,'1111122,1111122,1111122' 
DISL,ioos:station:DISL:PPTA:1,2014-08-01T19:30:00Z,30.2791,-87.5561,0.0,1.74,176.7,-9999.0,'1111122,1111122,1111122' 
DISL,ioos:station:DISL:PPTA:1,2014-08-01T20:00:00Z,30.2791,-87.5561,0.0,1.47,170.6,-9999.0,'1111122,1111122,1111122' 
DISL,ioos:station:DISL:PPTA:1,2014-08-01T20:30:00Z,30.2791,-87.5561,0.0,2.03,187.3,-9999.0,'1111122,1111122,1111122' 
DISL,ioos:station:DISL:PPTA:1,2014-08-01T21:00:00Z,30.2791,-87.5561,0.0,2.0,185.1,-9999.0,'1111122,1111122,1111122' 
DISL,ioos:station:DISL:PPTA:1,2014-08-01T21:30:00Z,30.2791,-87.5561,0.0,1.93,184.5,-9999.0,'1111122,1111122,1111122' 
DISL,ioos:station:DISL:PPTA:1,2014-08-01T22:00:00Z,30.2791,-87.5561,0.0,1.28,219.9,-9999.0,'1111122,1111122,1111122' 
DISL,ioos:station:DISL:PPTA:1,2014-08-01T22:30:00Z,30.2791,-87.5561,0.0,2.03,245.8,-9999.0,'1111122,1111122,1111122' 
DISL,ioos:station:DISL:PPTA:1,2014-08-01T23:00:00Z,30.2791,-87.5561,0.0,2.12,265.2,-9999.0,'1111122,1111122,1111122' 
DISL,ioos:station:DISL:PPTA:1,2014-08-01T23:30:00Z,30.2791,-87.5561,0.0,2.31,257.7,-9999.0,'1111122,1111122,1111122' 
DISL,ioos:station:DISL:PPTA:1,2014-08-02T00:00:00Z,30.2791,-87.5561,0.0,1.57,259.0,-9999.0,'1111122,1111122,1111122' 
DISL,ioos:station:DISL:PPTA:1,2014-08-02T00:30:00Z,30.2791,-87.5561,0.0,1.75,272.4,-9999.0,'1111122,1111122,1111122' 
DISL,ioos:station:DISL:PPTA:1,2014-08-02T01:00:00Z,30.2791,-87.5561,0.0,1.18,315.0,-9999.0,'1111122,1111122,1111122' 
DISL,ioos:station:DISL:PPTA:1,2014-08-02T01:30:00Z,30.2791,-87.5561,0.0,1.03,322.6,-9999.0,'1111122,1111122,1111122' 
DISL,ioos:station:DISL:PPTA:1,2014-08-02T02:00:00Z,30.2791,-87.5561,0.0,1.32,7.115,-9999.0,'1111122,1111122,1111122' 
DISL,ioos:station:DISL:PPTA:1,2014-08-02T02:30:00Z,30.2791,-87.5561,0.0,1.16,342.0,-9999.0,'1111122,1111122,1111122' 
DISL,ioos:station:DISL:PPTA:1,2014-08-02T03:00:00Z,30.2791,-87.5561,0.0,1.57,322.2,-9999.0,'1111122,1111122,1111122' 
DISL,ioos:station:DISL:PPTA:1,2014-08-02T03:30:00Z,30.2791,-87.5561,0.0,1.58,313.8,-9999.0,'1111122,1111122,1111122' 
DISL,ioos:station:DISL:PPTA:1,2014-08-02T04:00:00Z,30.2791,-87.5561,0.0,1.23,317.9,-9999.0,'1111122,1111122,1111122' 
DISL,ioos:station:DISL:PPTA:1,2014-08-02T04:30:00Z,30.2791,-87.5561,0.0,0.97,323.0,-9999.0,'1111122,1111122,1111122' 
DISL,ioos:station:DISL:PPTA:1,2014-08-02T05:00:00Z,30.2791,-87.5561,0.0,1.71,301.1,-9999.0,'1111122,1111122,1111122' 
DISL,ioos:station:DISL:PPTA:1,2014-08-02T05:30:00Z,30.2791,-87.5561,0.0,0.45,339.5,-9999.0,'1111122,1111122,1111122' 
DISL,ioos:station:DISL:PPTA:1,2014-08-02T06:00:00Z,30.2791,-87.5561,0.0,1.64,345.9,-9999.0,'1111122,1111122,1111122' 
DISL,ioos:station:DISL:PPTA:1,2014-08-02T06:30:00Z,30.2791,-87.5561,0.0,2.4,350.3,-9999.0,'1111122,1111122,1111122' 
DISL,ioos:station:DISL:PPTA:1,2014-08-02T07:00:00Z,30.2791,-87.5561,0.0,1.25,328.4,-9999.0,'1111122,1111122,1111122' 
DISL,ioos:station:DISL:PPTA:1,2014-08-02T07:30:00Z,30.2791,-87.5561,0.0,1.59,343.9,-9999.0,'1111122,1111122,1111122' 
DISL,ioos:station:DISL:PPTA:1,2014-08-02T08:00:00Z,30.2791,-87.5561,0.0,1.55,324.2,-9999.0,'1111122,1111122,1111122' 
DISL,ioos:station:DISL:PPTA:1,2014-08-02T08:30:00Z,30.2791,-87.5561,0.0,1.5,346.7,-9999.0,'1111122,1111122,1111122' 
DISL,ioos:station:DISL:PPTA:1,2014-08-02T09:00:00Z,30.2791,-87.5561,0.0,1.24,346.9,-9999.0,'1111122,1111122,1111122' 
DISL,ioos:station:DISL:PPTA:1,2014-08-02T09:30:00Z,30.2791,-87.5561,0.0,1.9,322.0,-9999.0,'1111122,1111122,1111122' 
DISL,ioos:station:DISL:PPTA:1,2014-08-02T10:00:00Z,30.2791,-87.5561,0.0,1.4,1.097,-9999.0,'1111122,1111122,1111122' 
DISL,ioos:station:DISL:PPTA:1,2014-08-02T10:30:00Z,30.2791,-87.5561,0.0,2.01,356.0,-9999.0,'1111122,1111122,1111122' 
DISL,ioos:station:DISL:PPTA:1,2014-08-02T11:00:00Z,30.2791,-87.5561,0.0,1.73,343.7,-9999.0,'1111122,1111122,1111122' 
DISL,ioos:station:DISL:PPTA:1,2014-08-02T11:30:00Z,30.2791,-87.5561,0.0,1.33,7.198,-9999.0,'1111122,1111122,1111122' 
DISL,ioos:station:DISL:PPTA:1,2014-08-02T12:00:00Z,30.2791,-87.5561,0.0,1.93,352.6,-9999.0,'1111122,1111122,1111122' 
DISL,ioos:station:DISL:PPTA:1,2014-08-02T12:30:00Z,30.2791,-87.5561,0.0,1.7,14.68,-9999.0,'1111122,1111122,1111122' 
DISL,ioos:station:DISL:PPTA:1,2014-08-02T13:00:00Z,30.2791,-87.5561,0.0,1.98,21.13,-9999.0,'1111122,1111122,1111122' 
DISL,ioos:station:DISL:PPTA:1,2014-08-02T13:30:00Z,30.2791,-87.5561,0.0,0.96,356.6,-9999.0,'1111122,1111122,1111122' 
DISL,ioos:station:DISL:PPTA:1,2014-08-02T14:00:00Z,30.2791,-87.5561,0.0,1.69,18.83,-9999.0,'1111122,1111122,1111122' 
DISL,ioos:station:DISL:PPTA:1,2014-08-02T14:30:00Z,30.2791,-87.5561,0.0,2.61,76.74,-9999.0,'1111122,1111122,1111122' 
DISL,ioos:station:DISL:PPTA:1,2014-08-02T15:00:00Z,30.2791,-87.5561,0.0,2.3,79.21,-9999.0,'1111122,1111122,1111122' 
DISL,ioos:station:DISL:PPTA:1,2014-08-02T15:30:00Z,30.2791,-87.5561,0.0,2.51,122.3,-9999.0,'1111122,1111122,1111122' 
DISL,ioos:station:DISL:PPTA:1,2014-08-02T16:00:00Z,30.2791,-87.5561,0.0,2.32,121.2,-9999.0,'1111122,1111122,1111122' 
DISL,ioos:station:DISL:PPTA:1,2014-08-02T16:30:00Z,30.2791,-87.5561,0.0,2.79,132.2,-9999.0,'1111122,1111122,1111122' 
DISL,ioos:station:DISL:PPTA:1,2014-08-02T17:00:00Z,30.2791,-87.5561,0.0,3.05,145.2,-9999.0,'1111122,1111122,1111122' 
DISL,ioos:station:DISL:PPTA:1,2014-08-02T17:30:00Z,30.2791,-87.5561,0.0,3.11,136.4,-9999.0,'1111122,1111122,1111122' 
DISL,ioos:station:DISL:PPTA:1,2014-08-02T18:00:00Z,30.2791,-87.5561,0.0,3.1,139.7,-9999.0,'1111122,1111122,1111122' 
DISL,ioos:station:DISL:PPTA:1,2014-08-02T18:30:00Z,30.2791,-87.5561,0.0,2.63,156.5,-9999.0,'1111122,1111122,1111122' 
DISL,ioos:station:DISL:PPTA:1,2014-08-02T19:00:00Z,30.2791,-87.5561,0.0,2.23,173.4,-9999.0,'1111122,1111122,1111122' 
DISL,ioos:station:DISL:PPTA:1,2014-08-02T19:30:00Z,30.2791,-87.5561,0.0,2.4,180.1,-9999.0,'1111122,1111122,1111122' 
DISL,ioos:station:DISL:PPTA:1,2014-08-02T20:00:00Z,30.2791,-87.5561,0.0,2.45,183.9,-9999.0,'1111122,1111122,1111122' 
DISL,ioos:station:DISL:PPTA:1,2014-08-02T20:30:00Z,30.2791,-87.5561,0.0,2.61,188.0,-9999.0,'1111122,1111122,1111122' 
DISL,ioos:station:DISL:PPTA:1,2014-08-02T21:00:00Z,30.2791,-87.5561,0.0,3.53,187.3,-9999.0,'1111122,1111122,1111122' 
DISL,ioos:station:DISL:PPTA:1,2014-08-02T21:30:00Z,30.2791,-87.5561,0.0,3.15,187.0,-9999.0,'1111122,1111122,1111122' 
DISL,ioos:station:DISL:PPTA:1,2014-08-02T22:00:00Z,30.2791,-87.5561,0.0,2.43,253.5,-9999.0,'1111122,1111122,1111122' 
DISL,ioos:station:DISL:PPTA:1,2014-08-02T22:30:00Z,30.2791,-87.5561,0.0,1.24,215.3,-9999.0,'1111122,1111122,1111122' 
DISL,ioos:station:DISL:PPTA:1,2014-08-02T23:00:00Z,30.2791,-87.5561,0.0,1.78,242.6,-9999.0,'1111122,1111122,1111122' 
DISL,ioos:station:DISL:PPTA:1,2014-08-02T23:30:00Z,30.2791,-87.5561,0.0,2.11,195.8,-9999.0,'1111122,1111122,1111122' 
DISL,ioos:station:DISL:PPTA:1,2014-08-03T00:00:00Z,30.2791,-87.5561,0.0,2.07,191.1,-9999.0,'1111122,1111122,1111122' 
DISL,ioos:station:DISL:PPTA:1,2014-08-03T00:30:00Z,30.2791,-87.5561,0.0,1.07,200.7,-9999.0,'1111122,1111122,1111122' 
DISL,ioos:station:DISL:PPTA:1,2014-08-03T01:00:00Z,30.2791,-87.5561,0.0,1.31,251.8,-9999.0,'1111122,1111122,1111122' 
DISL,ioos:station:DISL:PPTA:1,2014-08-03T01:30:00Z,30.2791,-87.5561,0.0,1.91,256.6,-9999.0,'1111122,1111122,1111122' 
DISL,ioos:station:DISL:PPTA:1,2014-08-03T02:00:00Z,30.2791,-87.5561,0.0,1.66,267.5,-9999.0,'1111122,1111122,1111122' 
DISL,ioos:station:DISL:PPTA:1,2014-08-03T02:30:00Z,30.2791,-87.5561,0.0,2.19,293.6,-9999.0,'1111122,1111122,1111122' 
DISL,ioos:station:DISL:PPTA:1,2014-08-03T03:00:00Z,30.2791,-87.5561,0.0,1.77,278.8,-9999.0,'1111122,1111122,1111122' 
DISL,ioos:station:DISL:PPTA:1,2014-08-03T03:30:00Z,30.2791,-87.5561,0.0,1.93,270.3,-9999.0,'1111122,1111122,1111122' 
DISL,ioos:station:DISL:PPTA:1,2014-08-03T04:00:00Z,30.2791,-87.5561,0.0,1.61,267.4,-9999.0,'1111122,1111122,1111122' 
DISL,ioos:station:DISL:PPTA:1,2014-08-03T04:30:00Z,30.2791,-87.5561,0.0,1.4,317.8,-9999.0,'1111122,1111122,1111122' 
DISL,ioos:station:DISL:PPTA:1,2014-08-03T05:00:00Z,30.2791,-87.5561,0.0,0.98,322.6,-9999.0,'1111122,1111122,1111122' 
DISL,ioos:station:DISL:PPTA:1,2014-08-03T05:30:00Z,30.2791,-87.5561,0.0,2.03,315.8,-9999.0,'1111122,1111122,1111122' 
DISL,ioos:station:DISL:PPTA:1,2014-08-03T06:00:00Z,30.2791,-87.5561,0.0,1.84,334.5,-9999.0,'1111122,1111122,1111122' 
DISL,ioos:station:DISL:PPTA:1,2014-08-03T06:30:00Z,30.2791,-87.5561,0.0,2.0,323.2,-9999.0,'1111122,1111122,1111122' 
DISL,ioos:station:DISL:PPTA:1,2014-08-03T07:00:00Z,30.2791,-87.5561,0.0,1.96,323.8,-9999.0,'1111122,1111122,1111122' 
DISL,ioos:station:DISL:PPTA:1,2014-08-03T07:30:00Z,30.2791,-87.5561,0.0,1.75,341.1,-9999.0,'1111122,1111122,1111122' 
DISL,ioos:station:DISL:PPTA:1,2014-08-03T08:00:00Z,30.2791,-87.5561,0.0,2.65,8.41,-9999.0,'1111122,1111122,1111122' 
DISL,ioos:station:DISL:PPTA:1,2014-08-03T08:30:00Z,30.2791,-87.5561,0.0,2.16,46.72,-9999.0,'1111122,1111122,1111122' 
DISL,ioos:station:DISL:PPTA:1,2014-08-03T09:00:00Z,30.2791,-87.5561,0.0,2.63,39.68,-9999.0,'1111122,1111122,1111122' 
DISL,ioos:station:DISL:PPTA:1,2014-08-03T09:30:00Z,30.2791,-87.5561,0.0,1.67,19.29,-9999.0,'1111122,1111122,1111122' 
DISL,ioos:station:DISL:PPTA:1,2014-08-03T10:00:00Z,30.2791,-87.5561,0.0,5.1,71.47,-9999.0,'1111122,1111122,1111122' 
DISL,ioos:station:DISL:PPTA:1,2014-08-03T10:30:00Z,30.2791,-87.5561,0.0,3.04,83.7,-9999.0,'1111122,1111122,1111122' 
DISL,ioos:station:DISL:PPTA:1,2014-08-03T11:00:00Z,30.2791,-87.5561,0.0,4.62,83.4,-9999.0,'1111122,1111122,1111122' 
DISL,ioos:station:DISL:PPTA:1,2014-08-03T11:30:00Z,30.2791,-87.5561,0.0,4.14,64.54,-9999.0,'1111122,1111122,1111122' 
DISL,ioos:station:DISL:PPTA:1,2014-08-03T12:00:00Z,30.2791,-87.5561,0.0,4.83,65.47,-9999.0,'1111122,1111122,1111122' 
DISL,ioos:station:DISL:PPTA:1,2014-08-03T12:30:00Z,30.2791,-87.5561,0.0,3.26,54.4,-9999.0,'1111122,1111122,1111122' 
DISL,ioos:station:DISL:PPTA:1,2014-08-03T13:00:00Z,30.2791,-87.5561,0.0,3.01,60.17,-9999.0,'1111122,1111122,1111122' 
DISL,ioos:station:DISL:PPTA:1,2014-08-03T13:30:00Z,30.2791,-87.5561,0.0,1.28,25.03,-9999.0,'1111122,1111122,1111122' 
DISL,ioos:station:DISL:PPTA:1,2014-08-03T14:00:00Z,30.2791,-87.5561,0.0,2.64,37.29,-9999.0,'1111122,1111122,1111122' 
DISL,ioos:station:DISL:PPTA:1,2014-08-03T14:30:00Z,30.2791,-87.5561,0.0,2.88,38.11,-9999.0,'1111122,1111122,1111122' 
DISL,ioos:station:DISL:PPTA:1,2014-08-03T15:00:00Z,30.2791,-87.5561,0.0,2.11,65.38,-9999.0,'1111122,1111122,1111122' 
DISL,ioos:station:DISL:PPTA:1,2014-08-03T15:30:00Z,30.2791,-87.5561,0.0,2.83,68.18,-9999.0,'1111122,1111122,1111122' 
DISL,ioos:station:DISL:PPTA:1,2014-08-03T16:00:00Z,30.2791,-87.5561,0.0,2.33,74.49,-9999.0,'1111122,1111122,1111122' 
DISL,ioos:station:DISL:PPTA:1,2014-08-03T16:30:00Z,30.2791,-87.5561,0.0,2.47,67.53,-9999.0,'1111122,1111122,1111122' 
DISL,ioos:station:DISL:PPTA:1,2014-08-03T17:00:00Z,30.2791,-87.5561,0.0,2.36,75.35,-9999.0,'1111122,1111122,1111122' 
DISL,ioos:station:DISL:PPTA:1,2014-08-03T17:30:00Z,30.2791,-87.5561,0.0,2.85,80.7,-9999.0,'1111122,1111122,1111122' 
DISL,ioos:station:DISL:PPTA:1,2014-08-03T18:00:00Z,30.2791,-87.5561,0.0,2.2,101.8,-9999.0,'1111122,1111122,1111122' 
DISL,ioos:station:DISL:PPTA:1,2014-08-03T18:30:00Z,30.2791,-87.5561,0.0,1.72,154.2,-9999.0,'1111122,1111122,1111122' 
DISL,ioos:station:DISL:PPTA:1,2014-08-03T19:00:00Z,30.2791,-87.5561,0.0,1.29,172.8,-9999.0,'1111122,1111122,1111122' 
DISL,ioos:station:DISL:PPTA:1,2014-08-03T19:30:00Z,30.2791,-87.5561,0.0,1.2,183.4,-9999.0,'1111122,1111122,1111122' 
DISL,ioos:station:DISL:PPTA:1,2014-08-03T20:00:00Z,30.2791,-87.5561,0.0,1.72,185.8,-9999.0,'1111122,1111122,1111122' 
DISL,ioos:station:DISL:PPTA:1,2014-08-03T20:30:00Z,30.2791,-87.5561,0.0,2.1,181.4,-9999.0,'1111122,1111122,1111122' 
DISL,ioos:station:DISL:PPTA:1,2014-08-03T21:00:00Z,30.2791,-87.5561,0.0,1.66,169.6,-9999.0,'1111122,1111122,1111122' 
DISL,ioos:station:DISL:PPTA:1,2014-08-03T21:30:00Z,30.2791,-87.5561,0.0,1.82,171.0,-9999.0,'1111122,1111122,1111122' 
DISL,ioos:station:DISL:PPTA:1,2014-08-03T22:00:00Z,30.2791,-87.5561,0.0,1.73,180.0,-9999.0,'1111122,1111122,1111122' 
DISL,ioos:station:DISL:PPTA:1,2014-08-03T22:30:00Z,30.2791,-87.5561,0.0,1.29,176.4,-9999.0,'1111122,1111122,1111122' 
DISL,ioos:station:DISL:PPTA:1,2014-08-03T23:00:00Z,30.2791,-87.5561,0.0,1.32,175.6,-9999.0,'1111122,1111122,1111122' 
DISL,ioos:station:DISL:PPTA:1,2014-08-03T23:30:00Z,30.2791,-87.5561,0.0,1.13,169.3,-9999.0,'1111122,1111122,1111122' 
DISL,ioos:station:DISL:PPTA:1,2014-08-04T00:00:00Z,30.2791,-87.5561,0.0,1.38,165.2,-9999.0,'1111122,1111122,1111122' 
DISL,ioos:station:DISL:PPTA:1,2014-08-04T00:30:00Z,30.2791,-87.5561,0.0,0.46,155.9,-9999.0,'1111122,1111122,1111122' 
DISL,ioos:station:DISL:PPTA:1,2014-08-04T01:00:00Z,30.2791,-87.5561,0.0,1.47,152.6,-9999.0,'1111122,1111122,1111122' 
DISL,ioos:station:DISL:PPTA:1,2014-08-04T01:30:00Z,30.2791,-87.5561,0.0,0.53,315.8,-9999.0,'1111122,1111122,1111122' 
DISL,ioos:station:DISL:PPTA:1,2014-08-04T02:00:00Z,30.2791,-87.5561,0.0,0.68,253.1,-9999.0,'1111122,1111122,1111122' 
DISL,ioos:station:DISL:PPTA:1,2014-08-04T02:30:00Z,30.2791,-87.5561,0.0,0.76,263.6,-9999.0,'1111122,1111122,1111122' 
DISL,ioos:station:DISL:PPTA:1,2014-08-04T03:00:00Z,30.2791,-87.5561,0.0,0.98,320.0,-9999.0,'1111122,1111122,1111122' 
DISL,ioos:station:DISL:PPTA:1,2014-08-04T03:30:00Z,30.2791,-87.5561,0.0,0.47,346.7,-9999.0,'1111122,1111122,1111122' 
DISL,ioos:station:DISL:PPTA:1,2014-08-04T04:00:00Z,30.2791,-87.5561,0.0,1.29,35.3,-9999.0,'1111122,1111122,1111122' 
DISL,ioos:station:DISL:PPTA:1,2014-08-04T04:30:00Z,30.2791,-87.5561,0.0,1.54,351.5,-9999.0,'1111122,1111122,1111122' 
DISL,ioos:station:DISL:PPTA:1,2014-08-04T05:00:00Z,30.2791,-87.5561,0.0,1.62,351.0,-9999.0,'1111122,1111122,1111122' 
DISL,ioos:station:DISL:PPTA:1,2014-08-04T05:30:00Z,30.2791,-87.5561,0.0,1.75,29.13,-9999.0,'1111122,1111122,1111122' 
DISL,ioos:station:DISL:PPTA:1,2014-08-04T06:00:00Z,30.2791,-87.5561,0.0,1.4,352.4,-9999.0,'1111122,1111122,1111122' 
DISL,ioos:station:DISL:PPTA:1,2014-08-04T06:30:00Z,30.2791,-87.5561,0.0,2.2,23.04,-9999.0,'1111122,1111122,1111122' 
DISL,ioos:station:DISL:PPTA:1,2014-08-04T07:00:00Z,30.2791,-87.5561,0.0,1.45,268.0,-9999.0,'1111122,1111122,1111122' 
DISL,ioos:station:DISL:PPTA:1,2014-08-04T07:30:00Z,30.2791,-87.5561,0.0,0.65,302.4,-9999.0,'1111122,1111122,1111122' 
DISL,ioos:station:DISL:PPTA:1,2014-08-04T08:00:00Z,30.2791,-87.5561,0.0,0.84,11.28,-9999.0,'1111122,1111122,1111122' 
DISL,ioos:station:DISL:PPTA:1,2014-08-04T08:30:00Z,30.2791,-87.5561,0.0,1.57,30.96,-9999.0,'1111122,1111122,1111122' 
DISL,ioos:station:DISL:PPTA:1,2014-08-04T09:00:00Z,30.2791,-87.5561,0.0,1.96,0.938,-9999.0,'1111122,1111122,1111122' 
DISL,ioos:station:DISL:PPTA:1,2014-08-04T09:30:00Z,30.2791,-87.5561,0.0,2.16,42.21,-9999.0,'1111122,1111122,1111122' 
DISL,ioos:station:DISL:PPTA:1,2014-08-04T10:00:00Z,30.2791,-87.5561,0.0,2.83,37.5,-9999.0,'1111122,1111122,1111122' 
DISL,ioos:station:DISL:PPTA:1,2014-08-04T10:30:00Z,30.2791,-87.5561,0.0,2.95,47.55,-9999.0,'1111122,1111122,1111122' 
DISL,ioos:station:DISL:PPTA:1,2014-08-04T11:00:00Z,30.2791,-87.5561,0.0,2.95,45.39,-9999.0,'1111122,1111122,1111122' 
DISL,ioos:station:DISL:PPTA:1,2014-08-04T11:30:00Z,30.2791,-87.5561,0.0,3.72,50.23,-9999.0,'1111122,1111122,1111122' 
DISL,ioos:station:DISL:PPTA:1,2014-08-04T12:00:00Z,30.2791,-87.5561,0.0,3.35,50.4,-9999.0,'1111122,1111122,1111122' 
DISL,ioos:station:DISL:PPTA:1,2014-08-04T12:30:00Z,30.2791,-87.5561,0.0,2.8,47.81,-9999.0,'1111122,1111122,1111122' 
DISL,ioos:station:DISL:PPTA:1,2014-08-04T13:00:00Z,30.2791,-87.5561,0.0,3.48,58.65,-9999.0,'1111122,1111122,1111122' 
DISL,ioos:station:DISL:PPTA:1,2014-08-04T13:30:00Z,30.2791,-87.5561,0.0,2.64,75.98,-9999.0,'1111122,1111122,1111122' 
DISL,ioos:station:DISL:PPTA:1,2014-08-04T14:00:00Z,30.2791,-87.5561,0.0,1.56,68.11,-9999.0,'1111122,1111122,1111122' 
DISL,ioos:station:DISL:PPTA:1,2014-08-04T14:30:00Z,30.2791,-87.5561,0.0,0.97,55.52,-9999.0,'1111122,1111122,1111122' 
DISL,ioos:station:DISL:PPTA:1,2014-08-04T15:00:00Z,30.2791,-87.5561,0.0,0.94,18.15,-9999.0,'1111122,1111122,1111122' 
DISL,ioos:station:DISL:PPTA:1,2014-08-04T15:30:00Z,30.2791,-87.5561,0.0,1.29,45.93,-9999.0,'1111122,1111122,1111122' 
DISL,ioos:station:DISL:PPTA:1,2014-08-04T16:00:00Z,30.2791,-87.5561,0.0,0.68,82.2,-9999.0,'1111122,1111122,1111122' 
DISL,ioos:station:DISL:PPTA:1,2014-08-04T16:30:00Z,30.2791,-87.5561,0.0,0.51,79.11,-9999.0,'1111122,1111122,1111122' 
DISL,ioos:station:DISL:PPTA:1,2014-08-04T17:00:00Z,30.2791,-87.5561,0.0,1.01,40.67,-9999.0,'1111122,1111122,1111122' 
DISL,ioos:station:DISL:PPTA:1,2014-08-04T17:30:00Z,30.2791,-87.5561,0.0,2.12,13.07,-9999.0,'1111122,1111122,1111122' 
DISL,ioos:station:DISL:PPTA:1,2014-08-04T18:00:00Z,30.2791,-87.5561,0.0,2.61,302.1,-9999.0,'1111122,1111122,1111122' 
DISL,ioos:station:DISL:PPTA:1,2014-08-04T18:30:00Z,30.2791,-87.5561,0.0,2.13,141.5,-9999.0,'1111122,1111122,1111122' 
DISL,ioos:station:DISL:PPTA:1,2014-08-04T19:00:00Z,30.2791,-87.5561,0.0,1.66,186.3,-9999.0,'1111122,1111122,1111122' 
DISL,ioos:station:DISL:PPTA:1,2014-08-04T19:30:00Z,30.2791,-87.5561,0.0,2.49,182.1,-9999.0,'1111122,1111122,1111122' 
DISL,ioos:station:DISL:PPTA:1,2014-08-04T20:00:00Z,30.2791,-87.5561,0.0,4.04,186.8,-9999.0,'1111122,1111122,1111122' 
DISL,ioos:station:DISL:PPTA:1,2014-08-04T20:30:00Z,30.2791,-87.5561,0.0,3.67,187.5,-9999.0,'1111122,1111122,1111122' 
DISL,ioos:station:DISL:PPTA:1,2014-08-04T21:00:00Z,30.2791,-87.5561,0.0,2.55,184.6,-9999.0,'1111122,1111122,1111122' 
DISL,ioos:station:DISL:PPTA:1,2014-08-04T21:30:00Z,30.2791,-87.5561,0.0,3.63,185.8,-9999.0,'1111122,1111122,1111122' 
DISL,ioos:station:DISL:PPTA:1,2014-08-04T22:00:00Z,30.2791,-87.5561,0.0,3.6,187.0,-9999.0,'1111122,1111122,1111122' 
DISL,ioos:station:DISL:PPTA:1,2014-08-04T22:30:00Z,30.2791,-87.5561,0.0,2.63,184.5,-9999.0,'1111122,1111122,1111122' 
DISL,ioos:station:DISL:PPTA:1,2014-08-04T23:00:00Z,30.2791,-87.5561,0.0,1.93,126.3,-9999.0,'1111122,1111122,1111122' 
DISL,ioos:station:DISL:PPTA:1,2014-08-04T23:30:00Z,30.2791,-87.5561,0.0,1.49,185.0,-9999.0,'1111122,1111122,1111122' 
DISL,ioos:station:DISL:PPTA:1,2014-08-05T00:00:00Z,30.2791,-87.5561,0.0,2.55,274.4,-9999.0,'1111122,1111122,1111122' 
DISL,ioos:station:DISL:PPTA:1,2014-08-05T00:30:00Z,30.2791,-87.5561,0.0,2.98,267.6,-9999.0,'1111122,1111122,1111122' 
DISL,ioos:station:DISL:PPTA:1,2014-08-05T01:00:00Z,30.2791,-87.5561,0.0,1.9,284.3,-9999.0,'1111122,1111122,1111122' 
DISL,ioos:station:DISL:PPTA:1,2014-08-05T01:30:00Z,30.2791,-87.5561,0.0,3.69,1.347,-9999.0,'1111122,1111122,1111122' 
DISL,ioos:station:DISL:PPTA:1,2014-08-05T02:00:00Z,30.2791,-87.5561,0.0,1.12,336.3,-9999.0,'1111122,1111122,1111122' 
DISL,ioos:station:DISL:PPTA:1,2014-08-05T02:30:00Z,30.2791,-87.5561,0.0,0.47,352.1,-9999.0,'1111122,1111122,1111122' 
DISL,ioos:station:DISL:PPTA:1,2014-08-05T03:00:00Z,30.2791,-87.5561,0.0,0.7,119.9,-9999.0,'1111122,1111122,1111122' 
DISL,ioos:station:DISL:PPTA:1,2014-08-05T03:30:00Z,30.2791,-87.5561,0.0,0.87,115.7,-9999.0,'1111122,1111122,1111122' 
DISL,ioos:station:DISL:PPTA:1,2014-08-05T04:00:00Z,30.2791,-87.5561,0.0,0.41,114.9,-9999.0,'1111122,1111122,1111122' 
DISL,ioos:station:DISL:PPTA:1,2014-08-05T04:30:00Z,30.2791,-87.5561,0.0,0.45,93.5,-9999.0,'1111122,1111122,1111122' 